Weather History for Monterrey Gen Maria, Mexico

Change the Weather History Date:

Saturday, December 15, 2012

  Actual Average Record
Temperature  
Mean Temperature 70 °F -  
Max Temperature 80 °F 68 °F 82 °F (2010)
Min Temperature 59 °F 46 °F 37 °F (2004)
Cooling Degree Days 4    
Growing Degree Days 20 (Base 50)    
Moisture  
Dew Point 60 °F    
Average Humidity 78    
Maximum Humidity 94    
Minimum Humidity 51    
Precipitation  
Precipitation 0.00 in - - ()
Sea Level Pressure  
Sea Level Pressure 29.89 in    
Wind  
Wind Speed 4 mph ()    
Max Wind Speed 8 mph    
Max Gust Speed -    
Visibility 6.5 miles    
Events      
Averages and records for this station are not official NWS values.
T = Trace of Precipitation, MM = Missing Value Source: Averaged Metar Reports

Daily Weather History Graph

Daily Weather History Graph

Search for Another Location

Airport:

Trip Planner

Search our weather history database for the weather conditions in past years. The results will help you decide how hot, cold, wet, or windy it might be!

Date:

Astronomy

Dec. 15, 2012 Rise Set
Actual Time 7:19 AM CST 5:52 PM CST
Civil Twilight 6:54 AM CST 6:17 PM CST
Nautical Twilight 6:25 AM CST 6:45 PM CST
Astronomical Twilight 5:57 AM CST 7:14 PM CST
Moon 9:23 AM CST (12/15) 8:45 PM CST (12/15)
Length of Visible Light 11h 22m
Length of Day
10h 32m
Waxing Crescent, 8% of the Moon is Illuminated
Dec 15
Waxing Crescent
Dec 19
First Quarter
Dec 28
Full
Jan 4
Last Quarter
Jan 11
New

Hourly Weather History & Observations

Time (CST) Temp. Heat Index Dew Point Humidity Pressure Visibility Wind Dir Wind Speed Gust Speed Precip Events Conditions
12:41 AM 62.6 °F - 60.8 °F 94% 29.90 in 5.0 mi Calm Calm - N/A   Scattered Clouds
1:44 AM 62.6 °F - 60.8 °F 94% 29.90 in 5.0 mi WNW 5.8 mph - N/A   Scattered Clouds
2:42 AM 60.8 °F - 59.0 °F 94% 29.94 in 5.0 mi WNW 5.8 mph - N/A   Scattered Clouds
3:44 AM 60.8 °F - 59.0 °F 94% 29.88 in 5.0 mi NW 5.8 mph - N/A   Scattered Clouds
4:44 AM 60.8 °F - 59.0 °F 94% 29.87 in 5.0 mi NW 8.1 mph - N/A   Scattered Clouds
5:40 AM 59.0 °F - 57.2 °F 94% 29.92 in 5.0 mi West 8.1 mph - N/A   Scattered Clouds
6:40 AM 60.8 °F - 59.0 °F 94% 29.88 in 2.0 mi West 8.1 mph - N/A   Mostly Cloudy
7:40 AM 60.8 °F - 59.0 °F 94% 29.89 in 3.0 mi West 3.5 mph - N/A   Mostly Cloudy
8:45 AM 64.4 °F - 60.8 °F 88% 29.97 in 4.0 mi WNW 4.6 mph - N/A   Mostly Cloudy
9:48 AM 69.8 °F - 60.8 °F 73% 29.93 in 7.0 mi NW 6.9 mph - N/A   Mostly Cloudy
10:44 AM 73.4 °F - 59.0 °F 61% 29.93 in 7.0 mi NW 4.6 mph - N/A   Mostly Cloudy
11:45 AM 75.2 °F - 60.8 °F 61% 29.92 in 10.0 mi Calm Calm - N/A   Mostly Cloudy
12:43 PM 78.8 °F - 60.8 °F 54% 29.89 in 10.0 mi ENE 6.9 mph - N/A   Mostly Cloudy
1:43 PM 78.8 °F - 60.8 °F 54% 29.85 in 6.0 mi East 4.6 mph - N/A   Mostly Cloudy
2:50 PM 80.6 °F 81.5 °F 60.8 °F 51% 29.87 in 6.0 mi East 5.8 mph - N/A   Mostly Cloudy
3:51 PM 78.8 °F - 59.0 °F 51% 29.85 in 6.0 mi ENE 4.6 mph - N/A   Mostly Cloudy
4:47 PM 77.0 °F - 62.6 °F 61% 29.85 in 6.0 mi East 4.6 mph - N/A   Mostly Cloudy
5:48 PM 73.4 °F - 62.6 °F 69% 29.86 in 6.0 mi SE 6.9 mph - N/A   Mostly Cloudy
6:50 PM 68.0 °F - 60.8 °F 78% 29.88 in 10.0 mi ESE 5.8 mph - N/A   Mostly Cloudy
7:45 PM 66.2 °F - 59.0 °F 78% 29.89 in 10.0 mi ESE 4.6 mph - N/A   Scattered Clouds
8:43 PM 66.2 °F - 60.8 °F 83% 29.88 in 10.0 mi Calm Calm - N/A   Mostly Cloudy
9:43 PM 62.6 °F - 59.0 °F 88% 29.87 in 10.0 mi Calm Calm - N/A   Mostly Cloudy
10:44 PM 62.6 °F - 60.8 °F 94% 29.87 in 7.0 mi Calm Calm - N/A   Mostly Cloudy
11:45 PM 62.6 °F - 59.0 °F 88% 29.85 in 7.0 mi Calm Calm - N/A   Clear